Showing default

ICEYE-X35, 58302

Orbit data source: Space-Track

ICEYE-X35, 58302 is a payload satellite owned by ICEYE (FI) in SSO that was launched on Sat, 11 Nov 2023 UTC via an FALCON 9 launch vehicle from the Air Force Western Test Range (AFWTR). Payload-class satellites include a variety of spacecraft equipped with specific instruments for various scientific and technological missions. These include communications satellites like Starlink; space stations such as the ISS; scientific satellites like the Hubble; Earth observation satellites from companies like Planet Labs, Umbra, and HawkEye 360; GPS; miniature CubeSats for education and research; and military/defense satellites.

Loading next visibility...
Identifier
58302, 2023-174AY
Orbit
SSO
Country
Flag of FIFI / FIN
Related business
Manufacturer
ICEYE
Mission
Operational Commercial Radar Imaging
Bus & Motor
ICEYE, Unknown motor
Mass
90 kg wet, 89 kg dry
Launch date (UTC)
2023-11-11 (2 years ago)
Launch vehicle
FALCON 9
Launch site
Air Force Western Test Range (AFWTR)
Object type
Payload
Rocket body
Debris
Shape & HBR
Box + 1 Pan, 1.6 m
Radar Cross Section
0.825 m², Medium (>0.1 m² and < 1m²)

Expand to show TLE details & history
Last TLE update: 13 hours ago

TLE from 13 hours ago
0 ICEYE-X35
1 58302U 23174AY  25289.19732039  .00032810  00000-0  99186-3 0  9995
2 58302  97.4039   5.2570 0012238 358.3483   1.7717 15.34082299107724
Epoch: 2025-10-16T04:44Z
TLE epoch observation values (Epoch: 2025-10-16T04:44:08.481Z)
Latitude
-0.00006°
Longitude
-90.73883°
Altitude
458.386 km
Speed
7.642 km/s
True Right ascension
00h 21m 01s
True Declination
0° 00' 00"
Sunlit
Object was in full shadow at epoch
Visualization orbit readout
Latitude
Unknown
Longitude
Unknown
Altitude
Unknown
Speed
Unknown
Apparent Right ascension
Unknown
Apparent Declination
Unknown
Sunlit
N/A
Visualization observer readout
Local Sidereal Time
12:42:57
Azimuth
Unknown
Elevation
Unknown
Doppler factor
Unknown
Orbital elements
Apogee altitude
468.964 km
Perigee altitude
452.225 km
Semi-major axis
6,838.732 km
Eccentricity
0.00122
Inclination
97.4039°
RAAN
5.257°
Arg. of periapsis
358.3483°
True anomaly
1.77604°
Mean anomaly
1.7717°
Eccentric anomaly
1.77387°
Mean motion
3.83778 °/min
Orbital period
93.8 mins
BSTAR
0.00099186
Loading maneuver chart data...
Computing Atmospheric mass density...

Documentation

Showing up to 5 results
|